Regional Weather Roundup
Issued by NWS Goodland, KS

Home | Current Version | Previous Version | Graphics & Text | Print | Product List | Glossary On
Versions: 1 2 3 4 5 6 7 8 9 10 11 12 13 14 15 16 17 18 19 20 21 22 23 24 25 26 27 28 29 30 31 32 33 34 35 36 37 38 39 40 41 42 43 44 45 46 47 48 49 50
000
ASUS43 KGLD 161459
RWRGLD

GOODLAND FORECAST AREA HOURLY WEATHER ROUNDUP
NATIONAL WEATHER SERVICE GOODLAND KS
900 AM MDT TUE SEP 16 2014

...OFFICIAL OBSERVATIONS...

CITY           SKY/WX    TMP DP  RH WIND       PRES   REMARKS
GOODLAND KS    PTSUNNY   60  53  77 SW15      30.16F
HILL CITY KS   CLOUDY    56  50  80 S5        30.20F
IMPERIAL NEB   MOSUNNY   61  53  75 S16G25    30.11F
MCCOOK NEB     CLOUDY    58  51  78 S12G23    30.15F
AKRON CO       SUNNY     62  52  69 W16       30.13S
BURLINGTON CO  SUNNY     61  52  72 SW18G26   30.16F
LIMON CO       SUNNY     59  51  75 VRB3      30.21F
$$

...UNOFFICIAL OBSERVATIONS...

CITY           SKY/WX    TMP DP  RH WIND       PRES   REMARKS
COLBY KS       CLOUDY    61  57  88 SE13      30.18F
GOVE KS          N/A     55  32  41 MISG        N/A
NORTON KS      CLOUDY    54  46  76 SE9G16    30.17F
SHARON SPRINGS   N/A     60  55  83 SW12G20     N/A
WAKEENEY KS      N/A     55  51  88 MISG        N/A
TRENTON NEB      N/A     59  32  36 S10         N/A
YUMA CO          N/A     60  57  89 SW6         N/A
$$


USA.gov is the U.S. government's official web portal to all federal, state and local government web resources and services.